Location: B?lite?ti
(46.2833°N, 22.7333°E)
Time: 04:11:00
(UTC+00:00)

Meteor 2-15 - Pass Details

Date: 24 January 2021
Orbit: 936 x 955 km, 82.5° (Epoch: 26 February)

Event Time Altitude Azimuth Distance (km) Brightness Sun altitude
Rises 17:36:50 0° 349° (N) 3,645 7.6 -23.1°
Reaches altitude 10° 17:39:21 10° 349° (N) 2,696 6.9 -23.5°
Maximum altitude 17:45:31 81° 264° (W) 973 4.5 -24.6°
Drops below altitude 10° 17:51:38 10° 177° (S) 2,673 6.8 -25.7°
Sets 17:54:07 0° 177° (S) 3,612 7.5 -26.1°
